Location: Caltech
(34.1382°N, 118.1253°W)
Time: 19:20:15
(UTC-07:00)

Hamsat - Visible Passes

Search period start: 22 October 2014 00:00
Search period end: 01 November 2014 00:00
Orbit: 592 x 629 km, 97.6° (Epoch: 21 October)

Date Brightness Start Highest point End Pass type
(mag) Time Alt. Az. Time Alt. Az. Time Alt. Az.
22 Oct ? 05:55:14 10° NE 05:58:34 23° E 06:01:54 10° SSE visible
23 Oct ? 06:09:08 10° NNE 06:12:57 34° E 06:16:47 10° SSE visible
23 Oct ? 18:34:23 10° SSW 18:38:13 34° W 18:42:03 10° NNW visible
24 Oct ? 06:23:13 10° NNE 06:27:19 51° E 06:31:25 10° S visible
24 Oct ? 18:49:15 10° SSW 18:52:36 23° W 18:55:57 10° NW visible
25 Oct ? 06:37:25 10° NNE 06:41:38 80° ESE 06:45:51 10° S visible
25 Oct ? 19:04:29 10° SW 19:07:00 15° W 19:09:30 10° WNW visible
27 Oct ? 05:32:28 10° ENE 05:34:03 12° E 05:35:39 10° ESE visible
28 Oct ? 05:45:33 10° NE 05:48:27 18° E 05:51:21 10° SE visible
29 Oct ? 05:59:14 10° NE 06:02:48 26° E 06:06:23 10° SSE visible
29 Oct ? 18:24:03 10° S 18:28:03 44° W 18:32:03 10° NNW visible
30 Oct ? 06:13:09 10° NNE 06:17:08 39° E 06:21:07 10° SSE visible
30 Oct ? 18:38:42 10° SSW 18:42:21 29° W 18:46:01 10° NW visible
31 Oct ? 06:27:13 10° NNE 06:31:25 60° E 06:35:37 10° S visible
31 Oct ? 18:53:37 10° SW 18:56:41 20° W 18:59:45 10° NW visible
